Total_Precipitation_Accumulation
0.54 0.51 0.70 0.63 0.60 0.60 0.63 0.65 0.69 0.70 0.74 0.96 1.13 1.26 1.32 1.30 1.32 1.29 1.27 1.35 1.45 1.44 1.42 1.43 1.36 1.33 1.22 1.19 1.09 0.96 0.88 0.93 0.95 0.92 0.93 1.03 1.17 1.35 1.62 1.74 1.71 1.23 1.11
0.27 0.35 0.57 0.55 0.57 0.63 0.57 0.54 0.62 0.69 0.74 0.91 1.13 1.34 1.26 1.16 1.12 1.15 1.21 1.29 1.35 1.30 1.25 1.20 1.17 1.10 1.01 0.96 0.87 0.77 0.80 0.94 1.14 1.24 1.27 1.20 1.27 1.37 1.52 1.48 1.66 1.18 1.03
0.21 0.26 0.37 0.53 0.59 0.60 0.57 0.59 0.62 0.65 0.73 0.88 1.08 1.26 1.18 1.11 1.11 1.15 1.16 1.25 1.24 1.19 1.09 1.02 0.99 0.90 0.81 0.73 0.67 0.68 0.78 1.04 1.39 1.64 1.73 1.31 0.97 1.23 1.39 1.24 1.09 0.94 0.93
0.19 0.21 0.28 0.43 0.55 0.58 0.59 0.62 0.67 0.72 0.79 0.86 0.91 1.05 1.10 1.10 1.10 1.13 1.17 1.17 1.12 1.03 0.94 0.88 0.79 0.74 0.71 0.64 0.63 0.71 0.88 1.10 1.44 1.85 1.90 1.21 0.73 0.89 1.05 0.92 0.86 0.74 0.77
0.19 0.21 0.30 0.38 0.46 0.55 0.59 0.63 0.64 0.68 0.76 0.76 0.73 0.84 0.98 1.04 1.07 1.13 1.17 1.13 1.04 0.95 0.86 0.79 0.70 0.65 0.63 0.61 0.65 0.76 0.96 1.17 1.56 1.71 1.32 1.18 1.04 0.92 0.84 0.82 0.76 0.66 0.61
0.24 0.21 0.32 0.38 0.40 0.45 0.52 0.56 0.55 0.55 0.63 0.66 0.64 0.75 0.89 0.97 1.01 1.09 1.07 1.03 0.97 0.91 0.79 0.75 0.67 0.62 0.58 0.56 0.66 0.80 1.00 1.31 1.45 0.98 0.89 0.98 0.95 0.95 0.86 0.96 0.83 0.69 0.59
0.34 0.29 0.35 0.42 0.43 0.44 0.48 0.51 0.54 0.50 0.55 0.62 0.68 0.78 0.86 0.87 0.92 0.96 0.92 0.88 0.84 0.80 0.72 0.72 0.69 0.65 0.64 0.66 0.73 0.84 1.04 1.39 1.14 0.75 0.90 1.14 1.04 0.92 0.89 1.06 1.01 0.80 0.63
0.45 0.34 0.36 0.45 0.46 0.44 0.49 0.54 0.55 0.51 0.55 0.61 0.64 0.69 0.72 0.74 0.80 0.79 0.81 0.82 0.79 0.74 0.69 0.68 0.65 0.65 0.67 0.68 0.74 0.84 1.02 1.15 0.76 0.73 0.85 0.97 0.87 0.90 0.93 1.11 1.14 0.96 0.78
0.51 0.48 0.44 0.42 0.41 0.44 0.52 0.57 0.57 0.52 0.54 0.55 0.55 0.57 0.64 0.74 0.78 0.77 0.78 0.79 0.76 0.71 0.68 0.67 0.55 0.53 0.55 0.60 0.66 0.75 0.96 1.08 0.86 0.85 0.80 0.81 0.70 0.77 0.94 1.07 1.03 0.99 0.91
0.69 0.65 0.64 0.59 0.52 0.46 0.46 0.56 0.62 0.59 0.58 0.55 0.56 0.58 0.69 0.81 0.81 0.78 0.69 0.73 0.72 0.69 0.71 0.70 0.61 0.59 0.63 0.70 0.79 0.91 1.05 0.85 0.90 0.88 0.96 0.93 0.80 0.91 1.10 1.18 1.08 1.02 0.99
0.99 0.89 0.83 0.70 0.61 0.56 0.47 0.47 0.58 0.63 0.65 0.70 0.74 0.75 0.95 1.16 1.11 1.12 0.97 1.01 0.98 0.93 0.95 0.96 0.90 0.82 0.78 0.75 0.98 1.27 1.04 0.80 1.01 1.09 1.07 1.02 0.99 1.19 1.43 1.41 1.32 1.21 1.11
1.26 0.96 0.89 0.75 0.68 0.61 0.51 0.62 0.82 0.78 0.86 0.97 1.09 1.12 1.41 1.64 1.62 1.31 1.44 1.53 1.49 1.48 1.38 1.37 1.53 1.31 1.03 0.98 1.51 1.87 1.09 0.87 0.92 0.96 0.95 1.00 1.30 1.58 1.78 1.62 1.45 1.38 1.28
1.26 1.24 1.16 0.96 0.88 0.85 0.93 0.86 0.99 1.14 1.31 1.28 1.23 1.38 1.72 1.62 1.48 1.39 1.49 1.80 1.96 2.01 1.92 1.91 2.03 1.76 1.67 1.85 2.01 1.84 1.30 1.19 1.14 1.11 1.11 1.35 1.75 2.04 2.07 1.81 1.64 1.56 1.47
1.55 1.80 1.86 1.53 1.47 1.37 1.23 1.17 1.14 1.21 1.37 1.50 1.70 1.73 1.86 1.98 1.91 1.78 1.84 2.04 2.18 2.31 2.69 2.58 2.49 2.32 2.24 2.10 2.06 1.83 1.59 1.54 1.44 1.58 1.82 1.71 1.87 2.17 2.28 2.09 1.87 1.77 1.70
2.19 2.41 2.58 2.16 2.06 1.94 1.94 1.88 1.60 1.68 1.80 1.91 2.03 2.15 2.20 2.36 2.39 2.37 2.29 2.24 2.09 2.18 2.53 2.79 2.66 2.67 2.58 2.41 2.18 2.00 1.87 1.76 1.67 1.78 1.94 2.11 2.11 2.13 2.28 2.38 2.21 2.00 1.88
2.72 2.84 2.98 2.88 2.88 2.73 2.50 2.54 2.52 2.17 2.22 2.19 2.19 2.12 2.30 2.51 2.80 2.94 2.81 2.66 2.36 2.26 2.33 2.61 2.67 2.89 2.82 2.63 2.05 1.93 1.93 1.93 1.94 1.89 2.05 2.53 2.52 2.14 2.09 2.29 2.42 2.38 2.22
3.62 3.51 3.55 3.54 3.78 3.65 3.24 2.95 2.69 2.51 2.46 2.57 2.54 2.42 2.51 2.73 2.99 2.97 2.79 2.47 2.24 2.23 2.39 2.36 2.36 2.65 2.48 2.35 2.21 2.27 2.25 2.16 2.01 1.98 2.08 2.50 2.49 2.13 1.96 1.98 2.23 2.40 2.49
4.46 4.37 4.20 3.79 4.13 4.13 3.81 3.58 3.27 3.02 3.05 2.97 2.66 2.55 2.50 2.67 2.58 2.67 2.35 2.03 2.11 2.26 2.35 2.47 2.36 2.45 2.49 2.58 2.61 2.58 2.45 2.29 1.91 1.78 1.72 1.81 2.02 1.76 1.85 2.02 2.06 2.08 2.41
4.91 5.12 5.08 4.97 4.68 4.41 4.24 4.09 3.90 3.73 3.40 3.01 2.82 2.68 2.41 2.17 1.99 2.17 2.02 1.96 1.99 2.17 2.19 2.04 2.35 2.58 2.58 2.61 2.45 2.50 2.16 1.99 1.77 1.52 1.49 1.46 1.57 1.69 1.70 1.79 1.88 1.89 2.30
4.89 5.42 5.58 5.62 5.26 4.76 4.32 3.97 3.90 3.66 3.37 3.09 2.83 2.63 2.24 2.03 1.81 2.02 1.94 1.87 1.91 2.08 2.17 2.29 2.57 2.68 2.42 2.37 2.19 2.07 1.81 1.48 1.43 1.37 1.23 1.28 1.37 1.34 1.46 1.64 1.88 1.70 2.11
4.47 5.14 5.25 5.49 5.02 4.38 3.85 3.48 3.37 3.16 2.85 2.72 2.59 2.41 2.26 2.05 1.91 2.10 1.94 2.00 1.86 1.93 1.95 2.07 2.31 2.42 2.08 2.21 2.65 2.26 1.67 1.34 1.35 1.22 1.18 1.25 1.29 1.30 1.47 1.74 1.88 1.94 2.06
3.87 4.56 4.61 4.32 4.09 3.64 3.26 3.11 2.94 2.88 2.56 2.37 2.21 2.21 2.01 1.85 1.85 1.85 1.98 1.86 1.82 1.93 1.93 2.01 2.20 2.20 1.94 2.14 2.61 2.71 2.17 1.80 1.52 1.13 1.12 1.19 1.31 1.50 1.54 1.57 1.94 2.23 2.26
3.52 3.60 3.23 3.07 3.15 3.10 2.94 2.83 2.70 2.69 2.49 2.22 2.04 2.01 1.84 1.64 1.65 1.66 1.67 1.74 1.85 1.68 1.80 1.97 2.11 2.23 2.11 2.03 2.31 2.71 2.49 2.14 1.82 1.45 1.33 1.42 1.56 1.70 1.74 1.89 2.00 2.21 2.34
2.68 2.59 2.55 2.53 2.58 2.77 2.77 2.54 2.36 2.09 1.99 1.91 1.80 1.84 1.82 1.59 1.52 1.53 1.52 1.67 1.75 1.69 1.89 1.66 1.78 2.07 2.27 2.07 2.08 2.13 2.15 2.34 2.33 1.94 1.60 1.50 1.62 1.76 1.83 1.83 1.89 2.16 2.33
2.02 2.08 2.07 2.35 2.44 2.48 2.46 2.41 2.41 2.14 1.96 1.90 2.02 2.22 2.14 1.83 1.51 1.35 1.45 1.59 1.68 1.72 1.80 1.75 1.86 1.85 1.93 1.96 2.00 1.99 2.08 2.29 2.18 2.12 1.95 1.76 1.69 1.54 1.59 1.70 1.86 2.06 2.15
1.35 1.48 1.60 1.86 2.08 2.16 2.12 2.13 2.19 2.18 2.14 1.96 1.90 1.95 1.89 1.75 1.55 1.39 1.42 1.62 1.68 1.72 1.74 1.78 1.78 1.73 1.81 1.90 1.95 1.97 2.10 2.10 2.04 2.15 2.06 1.88 1.78 1.52 1.52 1.58 1.76 1.90 1.92